Find Globalstar M026

NORAD ID: 25873 Int'l Des: 1999-041 Owner: GLOBT Country: US Constellation: globalstar operational
MEOCIRCULAR

Current View

Loading 3D Globe...

About Globalstar M026

Description loading...

Upcoming Passes

Passes for default location (London). Set your location on the main map for personalized predictions.

Altitude History

Loading altitude history...

Two-Line Element Set

1 25873U 99041B 26150.03335993 -.00000123 00000-0 -21822-2 0 9992
2 25873 51.9978 115.7580 0001190 85.4779 349.5436 11.06841091186891
Epoch: May 30, 2026 • Age: 10 hours

Current Status

Altitude 2137.5 km
Velocity 6.84 km/s
Sub-Earth Point -31.89°S, 79.45°W
Launch Date Jul 25, 1999
Age 26.8 years
Type communications

Technical Details

Classification Payload
Mass 450.00 kg
Dry Mass 380.00 kg
Total Mass 450.00 kg
Length 1.50 m
Diameter 0.60 m
Span 12.00 m
Shape Box + 2 Pan
Manufacturer LOR
Bus Type LS-400
Phase Status In Orbit
Owner/State GLOBT/US

Most Searched